星链-11637 (STARLINK-11637)

导读

STARLINK-11637是美国SpaceX星链互联网项目的低轨卫星,于2025年3月13日发射升空,属于星链星座组网卫星,旨在为全球偏远地区、海洋、航空等领域提供高速低延迟宽带互联网服务,延续星链大规模组网进程,进一步完善全球卫星互联网覆盖网络,服务民用、商用及特殊领域的通信需求。

基本信息
目录编号:
63190
目录名称:
STARLINK-11637
国际标识:
2025-048H
轨道中心:
EARTH
卫星名称:
星链-11637
卫星全名:
星链-11637 (STARLINK-11637)
卫星状态:
在轨 (已飞行541 天)
发射日期:
2025-03-13 UTC
国别 :
美国 (US)
星等 :
--
轨道信息
数据来源 国际轨道数据
星历时间: 2026-09-05T05:52:13+0800
10小时前
查看轨道信息
半长轴: 6734.572km
偏心率: 0.0000481
轨道倾角: 43.000°
近地点辐角 333.381°
升交点赤经 320.005°
平近点角 26.703°
近地点: 356.111km
远地点: 356.759km
周期: 91.669分钟
每日圈数: 15.708612
详细信息
固有亮度:
5
最大亮度:
2.5
卫星平台:
Starlink V1.0
覆盖范围:
全球
运营商:
太空探索技术公司
运营商所在国:
美国
制造商(研发单位):
太空探索技术公司
制造商所在国:
美国
使用方式:
暂无
卫星简介
Starlink 计划是 SpaceX 推出的全球卫星互联网项目,通过发射低轨道卫星,为全球尤其是偏远地区提供高速、低延迟的互联网服务。自 2019 年起,Starlink 已部署数千颗卫星,旨在缩小全球数字鸿沟,推动互联网普及。该项目还为军事、航空等行业提供通信支持,带来广泛经济效益。
2D轨道图
3D轨道图
轨道高度分析图
轨道倾角分析图
轨道综合分析图
查看轨道综合分析图
交会数据列表
事件ID 空间交会对象 最接近时刻(TCA) 交会距离 交会风险概率(CRP) 交会风险指数(CRI) 操作
CDM_260830-075906-319006-413321
2026-08-30T
07:59:01+0000
0.789 km
远距离
1.223556E-5 中风险 0.57
CDM_260830-071306-319006-413321
2026-08-30T
07:13:15+0000
2.850 km
极远距离
4.079244E-7 极低风险 0.27